Location: Gull Harbor
(47.1000°N, 122.9000°W)
Time: 04:56:54
(UTC-07:00)

Envisat - Visible Passes

Search period start: 26 May 2018 00:00
Search period end: 05 June 2018 00:00
Orbit: 764 x 766 km, 98.2° (Epoch: 26 May)

Date Brightness Start Highest point End Pass type
(mag) Time Alt. Az. Time Alt. Az. Time Alt. Az.
26 May 6.1 22:14:27 10° W 22:15:01 10° W 22:15:36 10° WNW visible
27 May 5.4 21:33:53 10° SW 21:37:47 22° W 21:41:44 10° NW visible
29 May 5.7 22:01:21 10° WSW 22:03:42 13° W 22:06:03 10° WNW visible
01 Jun 5.6 21:49:14 10° SW 21:52:24 16° W 21:55:34 10° NW visible
04 Jun 5.5 21:37:22 10° SW 21:41:06 20° W 21:44:52 10° NW visible
